Overview Statistics Trail Chart Weather Telemetry Raw packets
 

This is the latest recevied weather packets stored in our database for station/object N5DGC. If no packets are shown the sender has not sent any weather packets the latest 10 day(s).

<< 1 2 3 4 >>
Time Temp. Humidity Pressure Rain* Wind** Luminosity Snow
1788620150 24.44° C 42% 1241.9 hPa 0 mm - 47 W/m² -
1788619850 23.89° C 43% 1241.8 hPa 0 mm - 44 W/m² -
1788619545 23.89° C 44% 1241.7 hPa 0 mm - 51 W/m² -
1788619244 23.33° C 45% 1241.7 hPa 0 mm - 46 W/m² -
1788618944 23.33° C 45% 1241.9 hPa 0 mm - 43 W/m² -
1788618639 23.33° C 45% 1241.7 hPa 0 mm - 51 W/m² -
1788618337 23.33° C 45% 1241.7 hPa 0 mm - 45 W/m² -
1788618032 22.78° C 46% 1241.8 hPa 0 mm - 107 W/m² -
1788617727 22.22° C 48% 1241.7 hPa 0 mm - 47 W/m² -
1788617424 21.67° C 51% 1241.7 hPa 0 mm - 97 W/m² -
1788617118 21.11° C 53% 1241.7 hPa 0 mm - 73 W/m² -
1788616817 20.56° C 54% 1241.6 hPa 0 mm - 41 W/m² -
1788616513 20.56° C 56% 1241.5 hPa 0 mm - 41 W/m² -
1788616208 20.56° C 56% 1241.7 hPa 0 mm - 37 W/m² -
1788615908 20.56° C 55% 1241.6 hPa 0 mm - 34 W/m² -
1788615607 20.56° C 57% 1241.6 hPa 0 mm - 30 W/m² -
1788615302 20° C 59% 1241.6 hPa 0 mm - 32 W/m² -
1788615001 19.44° C 61% 1241.4 hPa 0 mm - 39 W/m² -
1788614697 18.89° C 63% 1241.4 hPa 0 mm - 31 W/m² -
1788614391 17.78° C 66% 1241.4 hPa 0 mm - 29 W/m² -
1788614087 17.22° C 67% 1241.1 hPa 0 mm - 22 W/m² -
1788613782 17.22° C 68% 1241.1 hPa 0 mm - 15 W/m² -
1788613481 17.22° C 67% 1241.1 hPa 0 mm - 13 W/m² -
1788613181 17.22° C 67% 1240.8 hPa 0 mm - 11 W/m² -
1788612876 17.22° C 67% 1240.9 hPa 0 mm - 9 W/m² -

* Rain latest hour (hover to see other rain measurements)
** Current wind speed in m/s (hover to see current wind gust speed)